Location: Friaudour
(46.0460°N, 1.2873°E)
Time: 20:35:17
(UTC+00:00)

COBE Rocket - Pass Details

Date: 14 July 2020
Orbit: 679 x 783 km, 97.1° (Epoch: 14 August)

Event Time Altitude Azimuth Distance (km) Brightness Sun altitude
Exits shadow 02:23:54 12° 168° (SSE) 2,165 5.9 -15.0°
Maximum altitude 02:28:39 86° 258° (WSW) 750 3.9 -14.5°
Drops below altitude 10° 02:33:34 10° 347° (NNW) 2,229 7.0 -14.0°
Sets 02:35:50 0° 348° (NNW) 3,138 7.8 -13.8°
